Volver al catálogo

SL-12 R/B(2)

ActivoGEO
NORAD 19076·ROCKET BODY·🇷🇺 Russia

Lanzado Apr 26, 1988 desde Baikonur Cosmodrome

Loading…

TLE

ActualizadoSource: Space-Track

Época: Sep 14, 2026, 14:24 UTC

1 19076U 88034D   26257.60049446 -.00000370  00000-0  00000-0 0  9992
2 19076  11.1526 326.9892 0023400 196.5285 174.6813  1.00108410140005

Sigue SL-12 R/B(2) en tiempo real con AllMySat

Download on the App Store